Meteo Giornale » Osservazioni meteo Stati Uniti (USA) » Reading

ore: 15:54 - Osservazioni Meteo Reading
Lat. 40° 22' N Lon. 75° 57' W Alt. 105 metri s.l.m.

nuvoloso

32 °C

Nuvoloso

Temp. 24 Ore

21 °C

32 °C

Ovest/Sud-Ovest

13 Km/h

Dew point 24 °C

Umidità 62 %

Visibilità  14 Km

Il sole sorge alle ore 06:31

Il sole tramonta alle ore 19:36

Data e Ora Cielo e Fenomeni T °C DP °C Um. % Pres. hPa Vis. km Vento km/h
Oggi h: 15:54 nuvoloso Nuvoloso 32 24 62 1013 14 O/SO 13
Oggi h: 14:54 molto_nuvoloso Molto Nuvoloso 30 24 70 1014 14 O/SO 13
Oggi h: 13:54 molto_nuvoloso Molto Nuvoloso 29 24 74 1014 13 S/SO 11.1
Oggi h: 12:54 molto_nuvoloso Molto Nuvoloso 28 23 74 1015 13 O 9.3
Oggi h: 11:54 poco_nuvoloso Poco Nuvoloso 27 23 78 1015 13 S 9.3
Oggi h: 10:54 coperto_pioggia Pioggia Foschia 25 23 88 1016 8 N 0
Oggi h: 09:54 foschia Foschia 25 23 88 1015 8 N 0
Oggi h: 09:01 foschia Foschia 23 22 94 1016 6 N 0
Oggi h: 08:54 poco_nuvoloso Poco Nuvoloso 22 22 100 1016 10 N 0
Oggi h: 07:54 coperto_pioggia Pioggia Foschia 22 22 100 1016 8 N 5.5
Oggi h: 06:54 foschia Foschia 21 21 100 1016 6 N 0
Oggi h: 06:04 foschia Foschia 21 21 100 1016 3 N 0
Oggi h: 05:54 nuvoloso Nuvoloso 21 21 100 1016 3 N 0
Oggi h: 04:54 sereno Sereno 21 21 100 1016 11 N 0
Oggi h: 03:54 molto_nuvoloso Molto Nuvoloso 21 21 100 1016 11 N 0
Oggi h: 02:54 molto_nuvoloso Molto Nuvoloso 21 21 100 1016 11 N 0
Oggi h: 01:54 poco_nuvoloso Poco Nuvoloso 21 21 100 1017 11 N 0
Oggi h: 00:54 coperto Coperto 22 21 94 1017 10 N 0
Ieri h: 23:54 coperto Coperto 22 21 94 1018 10 N 5.5
Ieri h: 22:54 coperto Coperto 22 20 88 1018 13 N 0
Ieri h: 21:54 molto_nuvoloso Molto Nuvoloso 22 20 88 1018 10 N 0
Ieri h: 20:54 poco_nuvoloso Poco Nuvoloso 22 20 88 1018 10 N 0
Ieri h: 19:54 sereno Sereno 23 20 83 1018 10 N 0
Ieri h: 18:54 sereno Sereno 24 20 78 1018 10 N 5.5
Ieri h: 17:54 poco_nuvoloso Poco Nuvoloso 24 20 78 1018 10 N 0
Ieri h: 16:54 sereno Sereno 23 19 78 1019 10 N 0